This is the latest recevied weather packets stored in our database for station/object IZ3LSV-13. If no packets are shown the sender has not sent any weather packets the latest 10 day(s).
| Time | Temp. | Humidity | Pressure | Rain* | Wind** | Luminosity | Snow |
|---|---|---|---|---|---|---|---|
| 1777760464 | 20° C | - | 1116.5 hPa | 0 mm | - | - | - |
| 1777760158 | 20° C | - | 1116.4 hPa | 0 mm | - | - | - |
| 1777759853 | 20° C | - | 1116.4 hPa | 0 mm | - | - | - |
| 1777759548 | 20° C | - | 1116.4 hPa | 0 mm | - | - | - |
| 1777759242 | 20° C | - | 1116.4 hPa | 0 mm | - | - | - |
| 1777758937 | 20° C | - | 1116.4 hPa | 0 mm | - | - | - |
| 1777758631 | 20.56° C | - | 1116.4 hPa | 0 mm | - | - | - |
| 1777757715 | 20.56° C | - | 1116.3 hPa | 0 mm | - | - | - |
| 1777757104 | 20.56° C | - | 1116.3 hPa | 0 mm | - | - | - |
| 1777756799 | 20.56° C | - | 1116.2 hPa | 0 mm | - | - | - |
| 1777756494 | 20.56° C | - | 1116.3 hPa | 0 mm | - | - | - |
| 1777755577 | 20.56° C | - | 1116.4 hPa | 0 mm | - | - | - |
| 1777754966 | 21.11° C | - | 1116.4 hPa | 0 mm | - | - | - |
| 1777754661 | 21.11° C | - | 1116.3 hPa | 0 mm | - | - | - |
| 1777753744 | 21.11° C | - | 1116.3 hPa | 0 mm | - | - | - |
| 1777753133 | 21.11° C | - | 1116.3 hPa | 0 mm | - | - | - |
| 1777752523 | 21.67° C | - | 1116.4 hPa | 0 mm | - | - | - |
| 1777749468 | 22.22° C | - | 1116.4 hPa | 0 mm | - | - | - |
| 1777746719 | 23.33° C | - | 1116 hPa | 0 mm | - | - | - |
| 1777746414 | 23.33° C | - | 1116 hPa | 0 mm | - | - | - |
| 1777745803 | 23.89° C | - | 1116 hPa | 0 mm | - | - | - |
| 1777745192 | 23.89° C | - | 1116 hPa | 0 mm | - | - | - |
| 1777744581 | 24.44° C | - | 1115.9 hPa | 0 mm | - | - | - |
| 1777744276 | 24.44° C | - | 1115.9 hPa | 0 mm | - | - | - |
| 1777743970 | 24.44° C | - | 1115.9 hPa | 0 mm | - | - | - |
* Rain latest hour (hover to see other rain measurements)
** Current wind speed in m/s (hover to see current wind gust speed)